Regional Weather Roundup
Issued by NWS Charleston, SC

Current Version | Previous Version | Text Only | Print | Product List | Glossary Off
Versions: 1 2 3 4 5 6 7 8 9 10 11 12 13 14 15 16 17 18 19 20 21 22 23 24 25 26 27 28 29 30 31 32 33 34 35 36 37 38 39 40 41 42 43 44 45 46 47 48 49 50
000 ASUS42 KCHS 230112 RWRCHS REGIONAL WEATHER ROUNDUP NATIONAL WEATHER SERVICE CHARLESTON SC 900 PM EDT THU JUN 22 2017 NOTE: "FAIR" INDICATES FEW OR NO CLOUDS BELOW 12,000 FEET WITH NO SIGNIFICANT WEATHER AND/OR OBSTRUCTIONS TO VISIBILITY. NOT ALL STATIONS ARE QUALITY CONTROLLED. USE DATA WITH CAUTION... ESPECIALLY DEWPOINT OBSERVATIONS. SCZ027-030-031-034>040-042>050-230200- ...SOUTHEAST SOUTH CAROLINA... CITY SKY/WX TMP DP RH WIND PRES REMARKS N CHARLESTON MOCLDY 80 75 84 S8 30.08S WATERFRONT PRK N/A 82 77 84 S5 30.06R HX 90 JOHNS ISLAND FAIR 81 77 89 S5 30.08S PINOPOLIS N/A 75 73 94 SE5 30.00 MONCKS CORNER FAIR 72 72 100 CALM 30.08S SUMMERVILLE FAIR 73 73 100 CALM 30.08F BEAUFORT MCAS CLOUDY 83 78 85 S6 30.06S HX 93 BEAUFORT ARPT FAIR 81 75 83 S5 30.06F HILTON HEAD IS PTCLDY 82 77 83 VRB6 30.07F HX 91 WALTERBORO MOCLDY 79 77 94 E3 30.08S ALLENDALE FAIR 81 75 83 CALM 30.05S ...SOUTHERN MIDLANDS AND PEE DEE... CITY SKY/WX TMP DP RH WIND PRES REMARKS GEORGETOWN LGT RAIN 77 75 94 CALM 30.09S KINGSTREE FAIR 75 72 88 CALM 30.07S ORANGEBURG PTCLDY 77 74 90 SE5 30.07F BARNWELL FAIR 82 77 83 SE7 30.06S HX 91 AIKEN FAIR 79 73 83 SE5 30.09F MANNING FAIR 73 73 100 S10 30.07S COLUMBIA CLOUDY 80 71 74 E6 30.05S SUMTER MOCLDY 76 72 86 S7 30.05S FLORENCE CLOUDY 78 75 90 S6 30.07R MYRTLE BEACH PTCLDY 81 79 94 S5 30.09S N MYRTLE BEACH CLOUDY 80 78 94 S8 30.07F $$ GAZ063-065-086>088-099>101-113>116-118-119-134>141-150-230200- ...SOUTHEAST GEORGIA... CITY SKY/WX TMP DP RH WIND PRES REMARKS SAVANNAH ARPT CLOUDY 82 74 76 S9 30.06F HUNTER AAF MOCLDY 82 76 83 S3 30.03F FORT STEWART PTCLDY 81 75 83 SE7 30.02F STATESBORO PTCLDY 82 78 88 CALM 30.05F HX 90 SYLVANIA PTCLDY 82 79 92 CALM 30.06F HX 91 CLAXTON FAIR N/A N/A N/A CALM 30.04F ...CSRA...CENTRAL AND FAR SOUTHEAST GEORGIA... CITY SKY/WX TMP DP RH WIND PRES REMARKS THOMSON CLOUDY 82 74 77 S3 30.09R AUGUSTA-BUSH CLOUDY 84 77 79 SE8 30.02F HX 94 AUGUSTA-DANIEL CLOUDY 85 74 69 SE6 30.04F HX 92 SWAINSBORO FAIR 82 77 83 SE8 30.05S HX 91 VIDALIA MOCLDY 79 73 83 SE5 30.04F EASTMAN MOCLDY 85 67 55 CALM 30.05R HAZLEHURST FAIR 81 76 83 S6 30.04R THUNDER ALMA CLOUDY 80 74 81 S6 30.04S WAYCROSS NOT AVBL JESUP FAIR 79 72 78 SE5 30.05S BAXLEY FAIR 79 79 100 CALM 30.03S BRUNSWICK CLOUDY 82 79 89 SE9 30.07S HX 93 SAINT SIMONS CLOUDY 82 77 84 SE13 30.06S HX 90 $$ SCZ027-028-034-036>038-045-046-048>050-GAZ119-141-230200- ...LAKE AND SUPPLEMENTAL COASTAL OBSERVATIONS... STATION/POSITION TIME TEMP WIND PRES WAVE SWELL AIR SEA DIR/SP/G HT/PER HT/PER/DIR (UTC) (F) (DEG/KT/KT) (MB) (FT/S) (FT/S/D) WINYAH BAY NOT AVBL LAKE MURRAY 0020 80 70/ 2/ 6 1016.9 ACE BASIN NERRS 2345 82 CALM 1018.0 FORT PULASKI 0036 82 84 180/ 6/ 10 1018.6S SAPELO ISLAND 0000 83 170/ 10 1018.0 $$ ANZ835-935-AMZ111-154-330-350-352-354-370-450-454-472-230200- ...C-MAN AND BUOY OBSERVATIONS... STATION/POSITION TIME TEMP WIND PRES WAVE SWELL AIR SEA DIR/SP/G HT/PER HT/PER/DIR (UTC) (F) (DEG/KT/KT) (MB) (FT/S) (FT/S/D) BUOY 41004 0050 81 81 190/ 10/ 12 1018.4R 3/ 7 2/120/ 7 BUOY 41008 2350 81 82 160/ 12/ 16 1017.5 3/ 8 2/110/ 8 FOLLY BEACH CMAN 0100 81 180/ 10/ 12 1019.1F CAPERS NEARSHORE 0008 86 83 200/ 12/ 17 1018.1R FRIPP NEARSHORE 0008 82 83 180/ 12/ 14 1017.9R STATION/POSITION TIME TEMP WIND PRES WAVE SWELL AIR SEA DIR/SP/G HT/PER HT/PER/DIR (UTC) (F) (DEG/KT/KT) (MB) (FT/S) (FT/S/D) 5E ST. MARYS GA 0030 81 N/A 3/ 8 FRYING PAN BUOY 0050 81 82 210/ 8/ 10 1018.4S 3/ 8 3/140/ 8 BUOY 41025 0050 80 80 240/ 14/ 16 1017.4R 3/ 9 2/160/ 9 CAPE LOOKOUT NC 0100 78 210/ 6/ 8 1017.5R BUOY 41002 0050 81 82 200/ 10/ 10 1020.2R 4/ 8 5/ 90/ 8 BUOY 41010 0050 82 83 120/ 10/ 14 1018.9R 6/ 8 5/130/ 8 ST AUGUSTINE FL 0100 79 79 160/ 13/ 14 1019.0R $$

USA.gov is the U.S. government's official web portal to all federal, state and local government web resources and services.